sat.trackr.live / text

‹ back to catalog

STARLINK-5690

NORAD 55480 · 2023-015AH

PAYLOAD ACTIVE UNKNOWN

§ Identity

Operator
Country
US
Launch date
2023-02-02
Launch site
AFETR
Launch vehicle
Mass (kg)
RCS (m²)

Purposes: comms

External: N2YO · Heavens-Above · Gunter

§ Orbital elements

Epoch: 2026-09-20T04:41:48.731424Z

Period
94.27 min
Inclination
43.0040°
Eccentricity
0.0001048
Mean motion
15.27575179 rev/d
Perigee alt
482.3 km
Apogee alt
483.8 km
Semi-major
6,861.2 km
B*
-5.1169e-7
RAAN
321.0856°
Arg perigee
274.6768°
Mean anomaly
85.3963°
Rev number
20,034

§ Raw data

STARLINK-56901 55480U 23015AH  26263.19570291 -.00000276  00000+0 -51169-6 0  99902 55480  43.0040 321.0856 0001048 274.6768  85.3963 15.27575179200345

JSON: /api/v1/satellites/55480 · /tle

For live sub-satellite position, see the globe view (requires WebGL).

§ Visibility from observer

Set your observer location to see the next 7 days of passes ≥ 10°. The values pass through the URL so the page stays shareable.

No JS? Fill the form by hand. The geolocation button needs JavaScript.